timestamp,wind_dir_avg,wind_spd_avg,wind_spd_max_dir,wind_spd_gust,battery_voltage,lat,long
2021-10-12 00:04:00+00:00,52.0,2.92,48.0,3.45,12.65,47.59359,-54.27349
2021-10-12 00:14:01+00:00,52.0,2.97,53.0,3.33,12.57,47.59359,-54.27349
2021-10-12 00:24:01+00:00,38.0,3.13,41.0,3.51,12.57,47.59359,-54.27349
2021-10-12 00:34:01+00:00,22.0,3.17,21.0,3.49,12.57,47.59359,-54.27349
2021-10-12 00:44:01+00:00,12.0,3.25,7.0,3.69,12.57,47.59359,-54.27349
2021-10-12 00:54:01+00:00,12.0,3.76,13.0,4.07,12.57,47.59359,-54.27349
2021-10-12 01:04:01+00:00,10.0,3.0,13.0,3.59,12.57,47.59359,-54.27349
2021-10-12 01:14:01+00:00,357.0,3.47,358.0,3.89,12.57,47.59359,-54.27349
2021-10-12 01:24:01+00:00,359.0,3.53,2.0,3.96,12.57,47.59359,-54.27349
2021-10-12 01:34:01+00:00,4.0,4.27,5.0,4.63,12.57,47.59359,-54.27349
2021-10-12 01:44:01+00:00,3.0,5.67,9.0,6.38,12.57,47.59359,-54.27349
2021-10-12 01:54:01+00:00,3.0,6.24,0.0,6.91,12.57,47.59359,-54.27349
2021-10-12 02:04:01+00:00,16.0,5.53,20.0,6.56,12.57,47.59359,-54.27349
2021-10-12 02:14:01+00:00,21.0,5.45,21.0,5.88,12.57,47.59359,-54.27349
2021-10-12 02:24:01+00:00,22.0,4.81,26.0,5.36,12.57,47.59359,-54.27349
2021-10-12 02:34:01+00:00,26.0,4.38,25.0,4.93,12.57,47.59359,-54.27349
2021-10-12 02:44:01+00:00,24.0,4.66,23.0,5.1,12.57,47.59359,-54.27349
2021-10-12 02:54:01+00:00,16.0,4.25,15.0,4.67,12.57,47.59359,-54.27349
2021-10-12 03:04:01+00:00,19.0,4.49,18.0,4.77,12.57,47.59359,-54.27349
2021-10-12 03:14:00+00:00,24.0,4.85,27.0,5.46,12.57,47.59359,-54.27349
2021-10-12 03:24:00+00:00,28.0,4.51,30.0,5.03,12.57,47.59359,-54.27349
2021-10-12 03:34:00+00:00,37.0,3.74,39.0,4.11,12.57,47.59359,-54.27349
2021-10-12 03:44:00+00:00,21.0,2.6,30.0,3.26,12.57,47.59359,-54.27349
2021-10-12 03:54:00+00:00,345.0,3.81,347.0,4.25,12.57,47.59359,-54.27349
2021-10-12 04:04:00+00:00,346.0,3.98,348.0,4.91,12.57,47.59359,-54.27349
2021-10-12 04:14:01+00:00,342.0,4.89,345.0,5.36,12.57,47.59359,-54.27349
2021-10-12 04:24:01+00:00,348.0,5.47,347.0,6.04,12.57,47.59359,-54.27349
2021-10-12 04:34:01+00:00,350.0,4.87,353.0,5.69,12.57,47.59359,-54.27349
2021-10-12 04:44:01+00:00,358.0,4.67,358.0,5.38,12.57,47.59359,-54.27349
2021-10-12 04:54:01+00:00,4.0,5.13,6.0,5.93,12.57,47.59359,-54.27349
2021-10-12 05:04:01+00:00,354.0,5.17,356.0,5.61,12.57,47.59359,-54.27349
2021-10-12 05:14:00+00:00,348.0,4.81,346.0,5.4,12.57,47.59359,-54.27349
2021-10-12 05:24:00+00:00,345.0,5.36,345.0,5.78,12.57,47.59359,-54.27349
2021-10-12 05:34:00+00:00,346.0,4.62,347.0,5.71,12.57,47.59359,-54.27349
2021-10-12 05:44:00+00:00,352.0,5.22,350.0,5.61,12.57,47.59359,-54.27349
2021-10-12 05:54:00+00:00,351.0,5.28,344.0,5.63,12.57,47.59359,-54.27349
2021-10-12 06:04:00+00:00,347.0,5.59,348.0,5.89,12.57,47.59359,-54.27349
2021-10-12 06:14:00+00:00,8.0,5.42,15.0,6.41,12.49,47.59359,-54.27349
2021-10-12 06:24:00+00:00,1.0,5.88,2.0,6.46,12.49,47.59359,-54.27349
2021-10-12 06:34:00+00:00,359.0,6.5,358.0,7.62,12.49,47.59359,-54.27349
2021-10-12 06:44:00+00:00,341.0,6.16,340.0,7.09,12.49,47.59359,-54.27349
2021-10-12 06:54:00+00:00,329.0,5.69,334.0,6.32,12.49,47.59359,-54.27349
2021-10-12 07:04:00+00:00,349.0,5.31,349.0,5.75,12.49,47.59359,-54.27349
2021-10-12 07:14:01+00:00,3.0,5.13,0.0,5.7,12.49,47.59359,-54.27349
2021-10-12 07:24:01+00:00,344.0,6.36,342.0,7.21,12.49,47.59359,-54.27349
2021-10-12 07:34:01+00:00,337.0,5.81,339.0,6.53,12.49,47.59359,-54.27349
2021-10-12 07:44:01+00:00,355.0,4.3,3.0,5.18,12.49,47.59359,-54.27349
2021-10-12 07:54:01+00:00,344.0,5.54,348.0,6.15,12.49,47.59359,-54.27349
2021-10-12 08:04:01+00:00,8.0,5.14,8.0,5.88,12.49,47.59359,-54.27349
2021-10-12 08:14:00+00:00,8.0,5.89,2.0,6.92,12.41,47.59359,-54.27349
2021-10-12 08:24:00+00:00,15.0,5.74,23.0,6.62,12.41,47.59359,-54.27349
2021-10-12 08:34:00+00:00,14.0,5.69,14.0,6.61,12.41,47.59359,-54.27349
2021-10-12 08:44:00+00:00,8.0,6.3,5.0,7.44,12.41,47.59359,-54.27349
2021-10-12 08:54:00+00:00,358.0,5.5,355.0,6.31,12.41,47.59359,-54.27349
2021-10-12 09:04:00+00:00,354.0,5.93,355.0,6.94,12.41,47.59359,-54.27349
2021-10-12 09:14:00+00:00,346.0,6.28,349.0,7.19,12.41,47.59359,-54.27349
2021-10-12 09:24:00+00:00,355.0,6.07,355.0,7.15,12.41,47.59359,-54.27349
2021-10-12 09:34:00+00:00,0.0,6.45,356.0,7.57,12.41,47.59359,-54.27349
2021-10-12 09:44:00+00:00,357.0,7.01,6.0,8.05,12.41,47.59359,-54.27349
2021-10-12 09:54:00+00:00,0.0,7.69,1.0,8.71,12.41,47.59359,-54.27349
2021-10-12 10:04:00+00:00,350.0,8.43,348.0,9.32,12.41,47.59359,-54.27349
2021-10-12 10:14:01+00:00,6.0,5.65,15.0,6.44,12.41,47.59359,-54.27349
2021-10-12 10:24:01+00:00,3.0,5.76,358.0,7.19,12.41,47.59359,-54.27349
2021-10-12 10:34:01+00:00,7.0,5.56,1.0,6.25,12.41,47.59359,-54.27349
2021-10-12 10:44:01+00:00,0.0,7.26,3.0,7.88,12.41,47.59359,-54.27349
2021-10-12 10:54:01+00:00,20.0,6.81,18.0,8.33,12.41,47.59359,-54.27349
2021-10-12 11:04:01+00:00,18.0,6.95,17.0,8.48,12.41,47.59359,-54.27349
2021-10-12 11:14:01+00:00,5.0,6.22,2.0,7.11,12.57,47.59359,-54.27349
2021-10-12 11:24:01+00:00,10.0,5.62,4.0,6.42,12.57,47.59359,-54.27349
2021-10-12 11:34:01+00:00,10.0,5.76,3.0,6.53,12.57,47.59359,-54.27349
2021-10-12 11:44:01+00:00,0.0,6.95,2.0,7.68,12.57,47.59359,-54.27349
2021-10-12 11:54:01+00:00,357.0,7.33,349.0,8.05,12.57,47.59359,-54.27349
2021-10-12 12:04:01+00:00,7.0,7.53,4.0,9.13,12.57,47.59359,-54.27349
2021-10-12 12:14:01+00:00,353.0,7.4,355.0,8.36,13.21,47.59359,-54.27349
2021-10-12 12:24:01+00:00,1.0,6.66,1.0,7.6,13.21,47.59359,-54.27349
2021-10-12 12:34:01+00:00,7.0,7.5,15.0,8.88,13.21,47.59359,-54.27349
2021-10-12 12:44:01+00:00,359.0,6.68,1.0,7.41,13.21,47.59359,-54.27349
2021-10-12 12:54:01+00:00,359.0,7.12,357.0,8.14,13.21,47.59359,-54.27349
2021-10-12 13:04:01+00:00,11.0,5.38,7.0,6.37,13.21,47.59359,-54.27349
2021-10-12 13:14:01+00:00,358.0,5.75,359.0,6.4,13.29,47.59359,-54.27349
2021-10-12 13:24:01+00:00,3.0,8.82,5.0,9.8,13.29,47.59359,-54.27349
2021-10-12 13:34:01+00:00,1.0,8.98,0.0,9.72,13.29,47.59359,-54.27349
2021-10-12 13:44:01+00:00,15.0,8.09,14.0,9.37,13.29,47.59359,-54.27349
2021-10-12 13:54:01+00:00,3.0,6.59,2.0,7.67,13.29,47.59359,-54.27349
2021-10-12 14:04:01+00:00,352.0,8.5,349.0,9.74,13.29,47.59359,-54.27349
2021-10-12 14:14:01+00:00,6.0,5.86,8.0,6.72,13.44,47.59359,-54.27349
2021-10-12 14:24:01+00:00,12.0,7.78,13.0,9.38,13.44,47.59359,-54.27349
2021-10-12 14:34:01+00:00,358.0,6.8,0.0,7.44,13.44,47.59359,-54.27349
2021-10-12 14:44:01+00:00,5.0,7.03,6.0,8.21,13.44,47.59359,-54.27349
2021-10-12 14:54:01+00:00,15.0,6.11,11.0,7.04,13.44,47.59359,-54.27349
2021-10-12 15:04:01+00:00,21.0,6.74,12.0,8.12,13.44,47.59359,-54.27349
2021-10-12 15:14:01+00:00,12.0,8.4,13.0,9.48,13.92,47.59359,-54.27349
2021-10-12 15:24:01+00:00,11.0,8.04,14.0,9.36,13.92,47.59359,-54.27349
2021-10-12 15:34:01+00:00,24.0,7.15,26.0,8.61,13.92,47.59359,-54.27349
2021-10-12 15:44:01+00:00,9.0,7.69,0.0,9.84,13.92,47.59359,-54.27349
2021-10-12 15:54:01+00:00,27.0,8.53,31.0,9.63,13.92,47.59359,-54.27349
2021-10-12 16:04:01+00:00,18.0,9.31,21.0,10.57,13.92,47.59359,-54.27349
2021-10-12 16:14:01+00:00,23.0,7.49,28.0,8.11,14.16,47.59359,-54.27349
2021-10-12 16:24:01+00:00,21.0,6.79,23.0,8.19,14.16,47.59359,-54.27349
2021-10-12 16:34:01+00:00,11.0,8.89,12.0,10.4,14.16,47.59359,-54.27349
2021-10-12 16:44:01+00:00,354.0,8.26,347.0,9.78,14.16,47.59359,-54.27349
2021-10-12 16:54:01+00:00,14.0,8.14,5.0,9.26,14.16,47.59359,-54.27349
2021-10-12 17:04:01+00:00,21.0,7.45,19.0,9.54,14.16,47.59359,-54.27349
2021-10-12 17:14:01+00:00,1.0,7.54,9.0,8.66,13.92,47.59359,-54.27349
2021-10-12 17:24:01+00:00,2.0,7.38,4.0,9.29,13.92,47.59359,-54.27349
2021-10-12 17:34:01+00:00,9.0,7.61,15.0,8.97,13.92,47.59359,-54.27349
2021-10-12 17:44:01+00:00,16.0,7.0,18.0,7.67,13.92,47.59359,-54.27349
2021-10-12 17:54:01+00:00,11.0,8.56,11.0,9.79,13.92,47.59359,-54.27349
2021-10-12 18:04:01+00:00,18.0,8.38,20.0,9.43,13.92,47.59359,-54.27349
2021-10-12 18:14:01+00:00,19.0,8.45,19.0,9.84,14.0,47.59359,-54.27349
2021-10-12 18:24:01+00:00,28.0,7.73,28.0,8.64,14.0,47.59359,-54.27349
2021-10-12 18:34:01+00:00,9.0,6.53,14.0,7.55,14.0,47.59359,-54.27349
2021-10-12 18:44:01+00:00,9.0,8.38,13.0,9.94,14.0,47.59359,-54.27349
2021-10-12 18:54:01+00:00,15.0,10.66,18.0,12.26,14.0,47.59359,-54.27349
2021-10-12 19:04:01+00:00,18.0,8.59,19.0,10.12,14.0,47.59359,-54.27349
2021-10-12 19:14:01+00:00,1.0,9.39,4.0,11.88,13.84,47.59359,-54.27349
2021-10-12 19:24:01+00:00,14.0,10.11,17.0,10.92,13.84,47.59359,-54.27349
2021-10-12 19:34:01+00:00,24.0,8.84,24.0,9.7,13.84,47.59359,-54.27349
2021-10-12 19:44:01+00:00,4.0,7.89,12.0,9.96,13.84,47.59359,-54.27349
2021-10-12 19:54:01+00:00,5.0,9.39,6.0,10.98,13.84,47.59359,-54.27349
2021-10-12 20:04:01+00:00,358.0,8.17,0.0,9.77,13.84,47.59359,-54.27349
2021-10-12 20:14:01+00:00,6.0,7.3,6.0,8.6,13.92,47.59359,-54.27349
2021-10-12 20:24:01+00:00,11.0,6.5,18.0,7.92,13.92,47.59359,-54.27349
2021-10-12 20:34:01+00:00,354.0,8.99,355.0,10.01,13.92,47.59359,-54.27349
2021-10-12 20:44:01+00:00,0.0,9.31,357.0,10.86,13.92,47.59359,-54.27349
2021-10-12 20:54:01+00:00,3.0,10.56,1.0,11.59,13.92,47.59359,-54.27349
2021-10-12 21:04:01+00:00,356.0,9.39,356.0,10.66,13.92,47.59359,-54.27349
2021-10-12 21:14:01+00:00,354.0,10.18,358.0,11.57,13.13,47.59359,-54.27349
2021-10-12 21:24:01+00:00,350.0,9.79,349.0,11.74,13.13,47.59359,-54.27349
2021-10-12 21:34:01+00:00,356.0,10.1,357.0,11.59,13.13,47.59359,-54.27349
2021-10-12 21:44:01+00:00,347.0,9.29,344.0,11.13,13.13,47.59359,-54.27349
2021-10-12 21:54:01+00:00,336.0,7.99,339.0,9.55,13.13,47.59359,-54.27349
2021-10-12 22:04:01+00:00,339.0,9.56,339.0,11.44,13.13,47.59359,-54.27349
2021-10-12 22:14:01+00:00,342.0,9.1,344.0,10.14,12.65,47.59359,-54.27349
2021-10-12 22:24:01+00:00,348.0,11.56,344.0,13.11,12.65,47.59359,-54.27349
2021-10-12 22:34:01+00:00,347.0,10.25,344.0,11.81,12.65,47.59359,-54.27349
2021-10-12 22:44:01+00:00,353.0,10.21,1.0,11.4,12.65,47.59359,-54.27349
2021-10-12 22:54:01+00:00,343.0,8.94,349.0,10.38,12.65,47.59359,-54.27349
2021-10-12 23:04:01+00:00,349.0,9.74,346.0,10.87,12.65,47.59359,-54.27349
2021-10-12 23:14:01+00:00,345.0,9.43,349.0,11.61,12.65,47.59359,-54.27349
2021-10-12 23:24:01+00:00,346.0,11.55,346.0,12.63,12.65,47.59359,-54.27349
2021-10-12 23:34:01+00:00,342.0,9.44,342.0,10.61,12.65,47.59359,-54.27349
2021-10-12 23:44:01+00:00,343.0,9.1,348.0,9.81,12.65,47.59359,-54.27349
2021-10-12 23:54:01+00:00,337.0,9.14,345.0,10.61,12.65,47.59359,-54.27349
